Location: Unspecified
(49.8670°N, 0.0000°E)
Time: 13:05:43
(UTC+00:00)

S-56A Canister/Altair - Pass Details

Date: 16 June 2019
Orbit: 632 x 2500 km, 38.9° (Epoch: 22 July)

Event Time Altitude Azimuth Distance (km) Brightness Sun altitude
Rises 18:53:41 0° 238° (WSW) 3,867 11.6 9.7°
Reaches altitude 10° 18:57:14 10° 225° (SW) 2,623 10.6 9.1°
Maximum altitude 19:01:48 23° 175° (S) 1,586 8.9 8.5°
Drops below altitude 10° 19:05:33 10° 122° (ESE) 2,116 9.2 7.9°
Sets 19:08:05 0° 107° (ESE) 2,949 9.9 7.6°
